STARLINK-36592, 68007

Orbit data source: Space-Track

STARLINK-36592, 68007 is a payload satellite owned by SpaceX/Seattle (US) in LEO that was launched on Fri, 27 Feb 2026 UTC via an FALCON 9 launch vehicle from the Air Force Eastern Test Range (AFETR). Payload-class satellites include a variety of spacecraft equipped with specific instruments for various scientific and technological missions. These include communications satellites like Starlink; space stations such as the ISS; scientific satellites like the Hubble; Earth observation satellites from companies like Planet Labs, Umbra, and HawkEye 360; GPS; miniature CubeSats for education and research; and military/defense satellites.

Loading next visibility...
Identifier
68007, 2026-039X
Orbit
LEO
Country
Flag of USUS
Related business
Manufacturer
SpaceX/Seattle
Mission
Operational Commercial Communications
Bus & Motor
STARLINK V2MO, Unknown motor
Mass
575 kg wet, ~530 kg dry
Launch date (UTC)
2026-02-27 (2 months ago)
Launch vehicle
FALCON 9
Launch site
Air Force Eastern Test Range (AFETR)
Object type
Payload
Rocket body
Debris
Shape & HBR
Box + 2 Pan, 17.7 m
Radar Cross Section
36.964 m²

Expand to show TLE details & history
Last TLE update: 2 days ago

TLE from 2 days ago
0 STARLINK-36592
1 68007U 26039X   26110.47775304  .00009773  00000-0  36421-3 0  9993
2 68007  42.9988 172.9830 0002509 279.8814  80.1754 15.27576879  8097
Epoch: 2026-04-20T11:27Z
TLE epoch observation values (Epoch: 2026-04-20T11:27:57.862Z)
Latitude
-0.00005°
Longitude
152.42454°
Altitude
482.54 km
Speed
7.626 km/s
True Right ascension
11h 31m 55s
True Declination
0° 00' 00"
Sunlit
Object was in full shadow at epoch
Visualization orbit readout
Latitude
Unknown
Longitude
Unknown
Altitude
Unknown
Speed
Unknown
Apparent Right ascension
Unknown
Apparent Declination
Unknown
Sunlit
N/A
Visualization observer readout
Local Sidereal Time
18:54:54
Azimuth
Unknown
Elevation
Unknown
Doppler factor
Unknown
Orbital elements
Apogee altitude
486.726 km
Perigee altitude
483.282 km
Semi-major axis
6,863.141 km
Eccentricity
0.00025
Inclination
42.9988°
RAAN
172.983°
Arg. of periapsis
279.8814°
True anomaly
80.20373°
Mean anomaly
80.1754°
Eccentric anomaly
80.18957°
Mean motion
3.81732 °/min
Orbital period
94.31 mins
BSTAR
0.00036421
Loading maneuver chart data...
Computing Atmospheric mass density...
Loading historical data...
Loading historical data...
Loading historical data...
Loading historical data...
Loading historical data...
Loading historical data...
Loading historical data...

Documentation

Showing up to 5 results
|